www.pogodaiklimat.ru

Погода и климат >> Архив погоды >> Иран >> Месджеде-Солейман


ПОГОДА в Месджеде-Солеймане

  • Прогноз погоды в Месджеде-Солеймане
  • Монитор погоды в Месджеде-Солеймане

АРХИВ ПОГОДЫ в Месджеде-Солеймане

Время (UTC), дата Ветер
(напр.,м/с)
 
Видим.   Явления Облачность Т
(С)
Тd
(С)
f
(%)
Тe
(С)
Тes
(С)
Комфортность P
(гПа)
Po
(гПа)
Тmin
(С)
Tmax
(С)
R
(мм)
R24
(мм)
S
(см)
00 13.08 ЮВ 4 10 км ясно +34.7 +1.3 12 +31 +31 жарко 993.3 959.6
03 13.08 ЮВ 1 10 км 4/0
[Ac trans]
+32.6 +3.5 16 +30 +31 жарко 996.0 961.9 +32.3
06 13.08 Ю 2 10 км 4/0
[Ac trans]
+41.3 +6.0 12 +39 +48 очень
жарко
997.5 963.6
09 13.08 Ю 2 10 км 4/0
[Ac trans]
+46.5 +4.4 8 +43 +59 опасность
перегрева
996.9 963.1
12 13.08 ЮЗ 3 10 км ясно +46.5 +3.1 7 +43 +51 опасность
перегрева
995.5 961.7
15 13.08 З 3 10 км ясно +43.3 +7.0 11 +41 +41 опасность
перегрева
996.2 962.1 +47.1
18 13.08 Ю 1 10 км ясно +39.0 +10.2 18 +38 +38 очень
жарко
997.7 963.8
00 14.08 СЗ 1 10 км ясно +33.7 +10.4 24 +33 +33 жарко 997.2 963.3
03 14.08 СЗ 1 10 км ясно +32.9 +10.7 26 +33 +33 жарко 998.4 964.2 +31.8 666
06 14.08 СВ 1 10 км ясно +40.1 +10.7 17 +39 +53 опасность
солнечного
удара
999.4 965.4
09 14.08 З 3 10 км ясно +45.1 +8.3 11 +43 +59 опасность
перегрева
998.2 964.4 666
12 14.08 З 4 10 км ясно +46.1 +7.2 10 +44 +50 опасность
перегрева
997.1 963.2
15 14.08 З 1 10 км ясно +43.8 +7.0 11 +41 +41 опасность
перегрева
997.5 963.3 +46.7 666
18 14.08 В 2 10 км 3/0
[Ac trans]
+41.2 +5.7 12 +39 +39 очень
жарко
999.5 965.6
21 14.08 ЮВ 2 10 км ясно +38.1 +8.6 17 +36 +36 очень
жарко
998.9 965.1
00 15.08 Ю 1 10 км ясно +36.5 +7.6 17 +34 +34 очень
жарко
998.6 964.8
03 15.08 штиль 0 10 км ясно +34.0 +10.7 24 +33 +34 жарко 999.8 965.7 +32.9
06 15.08 З 1 10 км ясно +42.8 +6.9 12 +40 +55 опасность
солнечного
удара
1000.3 966.5
09 15.08 СВ 2 10 км 4/0
[Ac trans]
+46.1 +5.4 9 +43 +58 опасность
перегрева
999.2 965.4
12 15.08 З 5 10 км 4/0
[Ac trans]
+46.2 +7.6 10 +44 +48 опасность
перегрева
997.2 963.5
15 15.08 З 4 10 км 4/0
[Ac trans]
+43.4 +11.1 15 +42 +42 опасность
перегрева
997.0 962.9 +47.3
18 15.08 З 1 10 км ясно +39.3 +13.1 21 +39 +39 очень
жарко
998.3 964.5
21 15.08 С 1 10 км ясно +36.6 +11.5 22 +36 +36 очень
жарко
998.4 964.6
00 16.08 ЮВ 2 10 км ясно +35.5 +10.3 22 +35 +35 очень
жарко
997.8 964.0
03 16.08 ЮВ 2 10 км ясно +34.5 +10.2 23 +34 +34 очень
жарко
998.8 964.7 +33.8
06 16.08 Ю 2 10 км ясно +42.3 +7.6 12 +40 +52 опасность
солнечного
удара
999.3 965.4
09 16.08 ЮЗ 3 10 км ясно +45.1 +9.8 13 +44 +60 опасность
перегрева
998.5 964.6
12 16.08 ЮЗ 5 10 км ясно +44.3 +6.7 11 +42 +47 опасность
перегрева
996.7 962.8
15 16.08 З 2 10 км 6/5 1050 м
[Cu Sc As op]
+43.6 +6.3 11 +41 +41 опасность
перегрева
997.0 962.9 +45.4 666
18 16.08 СВ 3 10 км 4/4 1200 м
[Sc]
+39.5 +6.3 13 +37 +37 очень
жарко
997.4 963.5
21 16.08 штиль 0 10 км ясно +35.4 +8.8 20 +34 +34 очень
жарко
997.1 963.2
00 17.08 СВ 1 10 км ясно +32.9 +8.2 22 +32 +32 жарко 996.0 962.0
03 17.08 С 1 10 км ясно +32.1 +8.7 23 +31 +32 жарко 996.4 962.3 +31.7
06 17.08 Ю 1 10 км ясно +40.9 +9.6 15 +39 +53 опасность
солнечного
удара
997.2 963.3
09 17.08 З 5 10 км ясно +43.3 +7.2 12 +41 +51 опасность
перегрева
996.5 962.6 666
12 17.08 З 4 10 км ясно +43.3 +7.5 12 +41 +47 опасность
перегрева
995.4 961.3
15 17.08 З 3 10 км ясно +41.7 +6.9 12 +39 +39 очень
жарко
995.2 961.0 +44.8
18 17.08 СЗ 2 10 км ясно +38.0 +2.5 11 +35 +35 очень
жарко
996.1 962.1
21 17.08 штиль 0 10 км ясно +34.1 +2.9 14 +31 +31 жарко 996.3 962.2
00 18.08 Ю 1 10 км ясно +31.6 +4.2 18 +29 +29 жарко 996.3 962.1
03 18.08 ЮВ 1 10 км ясно +31.1 +4.5 19 +29 +30 жарко 997.6 963.3 +30.4
06 18.08 ЮВ 2 10 км ясно +38.7 +3.9 12 +36 +48 очень
жарко
999.0 964.8
09 18.08 З 4 10 км ясно +41.8 +3.7 10 +39 +52 опасность
солнечного
удара
998.8 964.6
12 18.08 СЗ 6 10 км ясно +42.1 +4.5 10 +39 +43 очень
жарко
998.4 964.1
15 18.08 З 3 10 км ясно +39.9 +4.9 12 +37 +37 очень
жарко
999.5 965.0 +42.8
18 18.08 штиль 0 10 км ясно +35.6 +7.7 18 +34 +34 очень
жарко
1000.6 966.3
21 18.08 штиль 0 10 км ясно +34.2 +6.7 18 +32 +32 жарко 1001.0 966.8
00 19.08 ЮВ 1 10 км ясно +31.6 +7.4 22 +30 +30 жарко 1000.7 966.4
03 19.08 В 1 10 км ясно +31.0 +8.2 24 +30 +31 жарко 1001.7 967.1 +29.8
06 19.08 СЗ 2 10 км ясно +39.8 +6.8 14 +37 +50 очень
жарко
1002.5 968.2
09 19.08 З 5 10 км ясно +42.8 +5.0 10 +40 +50 очень
жарко
1001.6 967.4
12 19.08 З 3 10 км ясно +43.1 +7.7 12 +41 +49 опасность
перегрева
1001.1 966.8
15 19.08 ЮЗ 3 10 км ясно +41.3 +6.8 12 +39 +39 очень
жарко
1001.4 966.9 +43.6 666
18 19.08 Ю 1 10 км ясно +37.0 +8.5 18 +35 +35 очень
жарко
1002.6 968.3
21 19.08 Ю 1 10 км ясно +34.7 +8.5 20 +33 +33 жарко 1002.6 968.3

 

Местоположение метеостанции Месджеде-Солейман (Иран): широта 31.98 долгота 49.27 высота над уровнем моря 320 м.

В архиве по умолчанию представлена погода в Месджеде-Солеймане за последнюю неделю. Архивные данные за месяц целиком и за предыдущие месяцы, начиная с января 2011 года, Вы можете получить, выбрав интересующий диапазон дат из раскрывающегося списка и нажав кнопку "Ввод!".


*Определитесь, кто Вы:
робот инопланетянин человек

Внимание! Время в таблицах - всемирное. Для получения местного времени необходимо прибавить поправку, которая равна 3.5 ч.

Смотрите также архив погоды в соседних городах и на ближайших метеорологических станциях:

Погода в Сафиабаде (Иран) (86 км)
Погода в Ахвазе (Иран) (92 км)
Погода в Омидийе (Иран) (140 км)
Погода в Шехре-Корде (Иран) (153 км)
Погода в Элигудерзе (Иран) (163 км)
Погода в Хорремабаде (Иран) (187 км)
Погода в Амаре (Ирак) (199 км)
Погода в Абадане (Иран) (204 км)
Погода в Басре (Ирак) (211 км)
Погода в Басре аэропорт (Ирак) (216 км)

Пояснения к столбцам:

Ветер - указаны скорость ветра в м/с - средняя за 10 мин, порывы в срок и между сроками (в фигурных скобках) и направление, откуда дует ветер: С - северный, СВ - северо-восточный, В - восточный, ЮВ - юго-восточный, Ю - южный, ЮЗ - юго-западный, З - западный, СЗ - северо-западный.
Видимость - горизонтальная дальность видимости в метрах или километрах. При видимости от 1 до 10 км при отсутствии осадков обычно наблюдается дымка, при ухудшении видимости до 1 км и менее - туман. В сухую погоду видимость может ухудшаться дымом, пылью или мглою.
Явления - указаны атмосферные явления, наблюдавшиеся в срок или в последний час перед сроком; фигурными скобками обозначены явления, наблюдавшиеся между сроками (за 1-3 часа до срока); квадратными скобками обозначены град или гололедные отложения с указанием их диаметра в мм.
Облачность - указаны через наклонную черту общая и нижняя облачность в баллах и высота нижней границы облаков в метрах; квадратными скобками обозначены формы облаков: Ci - перистые, Cs - перисто-слоистые, Cc - перисто-кучевые, Ac - высококучевые, As - высокослоистые, Sc - слоисто-кучевые, Ns - слоисто-дождевые, Cu - кучевые, Cb - кучево-дождевые. Подробнее классификацию облаков см. в Атласе облаков (PDF).
T - Температура воздуха - температура, измеренная на высоте 2 м над землей.
Td - Температура точки росы - температура, при понижении до которой содержащийся в воздухе водяной пар достигнет насыщения.
f - Относительная влажность воздуха - влажноcть воздуха, измеренная на высоте 2 м над землей.
Te - Эффективная температура - температура, которую ощущает одетый по сезону человек в тени. Характеристика душности погоды. При расчете учитывается влияние влажности воздуха и скорости ветра на теплоощущения человека.
Tes - Эффективная температура на солнце - температура, которую ощущает человек, с поправкой на солнечный нагрев. Характеристика знойности погоды. Зависит от высоты солнца над горизонтом, облачности и скорости ветра. Ночью, в пасмурную погоду, а также при ветре 12 м/с и более поправка равна нулю.
P - Атмосферное давление - приведенное к уровню моря атмосферное давление.
Po - Атмосферное давление - измеренное на уровне метеостанции атмосферное давление.
Tmin - Минимальная температура - минимум температуры воздуха на высоте 2 м над землей.
Tmax - Максимальная температура - максимум температуры воздуха на высоте 2 м над землей.
R - Количество осадков - Количество выпавших осадков за период времени, мм. При наведении курсора мыши на число - период времени, за который выпало указанное количество осадков.
R24 - Количество осадков - Количество выпавших осадков за 24 часа, мм.
S - Снежный покров - Высота снежного покрова, см. При наведении курсора мыши на число - состояние снежного покрова и степень покрытия местности в баллах.